Location: Solstice Park, West Seattle
(47.5363°N, 122.3905°W)
Time: 08:47:33
(UTC-07:00)

ISS - Pass Details

Date: 14 May 2021
Orbit: 417 x 422 km, 51.6° (Epoch: 18 June)

Event Time Altitude Azimuth Distance (km) Brightness Sun altitude
Rises 03:07:55 0° 293° (WNW) 2,374 0.0 -18.3°
Reaches altitude 10° 03:10:02 10° 296° (WNW) 1,509 -1.0 -18.1°
Maximum altitude 03:13:24 64° 19° (NNE) 471 -3.3 -17.8°
Drops below altitude 10° 03:16:46 10° 102° (ESE) 1,507 -0.7 -17.5°
Sets 03:18:53 0° 105° (ESE) 2,370 0.3 -17.3°
